Location: El Diablo
(32.4667°N, 116.4500°W)
Time: 01:05:24
(UTC+00:00)

Cosmos 1867 - Pass Details

Date: 10 September 2024
Orbit: 772 x 802 km, 65.0° (Epoch: 06 October)

Event Time Altitude Azimuth Distance (km) Brightness Sun altitude
Exits shadow 12:03:55 29° 229° (SW) 1,428 4.4 -17.9°
Maximum altitude 12:06:39 61° 300° (WNW) 897 3.6 -17.4°
Drops below altitude 10° 12:12:03 10° 20° (NNE) 2,374 6.5 -16.3°
Sets 12:14:32 0° 24° (NNE) 3,310 7.4 -15.8°
